Weather History for KCGS - July, 2014

Change the Weather History Date:

Tuesday, July 22, 2014

  Actual Average Record
Temperature  
Mean Temperature 78 °F -  
Max Temperature 86 °F 90 °F 102 °F (1957)
Min Temperature 69 °F 68 °F 52 °F (1966)
Cooling Degree Days 12    
Growing Degree Days 28 (Base 50)    
Moisture  
Dew Point 69 °F    
Average Humidity 77    
Maximum Humidity 100    
Minimum Humidity 51    
Precipitation  
Precipitation 0.00 in - - ()
Sea Level Pressure  
Sea Level Pressure 30.14 in    
Wind  
Wind Speed 1 mph (SE)    
Max Wind Speed 7 mph    
Max Gust Speed -    
Visibility 10 miles    
Events      
Averages and records for this station are not official NWS values.
T = Trace of Precipitation, MM = Missing Value Source: NWS Daily Summary

Daily Weather History Graph

Daily Weather History Graph

Search for Another Location

Airport or City:

Trip Planner

Search our weather history database for the weather conditions in past years. The results will help you decide how hot, cold, wet, or windy it might be!

Date:

Astronomy

Jul. 22, 2014 Rise Set
Actual Time 5:59 AM EDT 8:27 PM EDT
Civil Twilight 5:29 AM EDT 8:58 PM EDT
Nautical Twilight 4:51 AM EDT 9:36 PM EDT
Astronomical Twilight 4:09 AM EDT 10:18 PM EDT
Moon 2:31 AM EDT (7/22) 5:04 PM EDT (7/22)
Length of Visible Light 15h 29m
Length of Day
14h 28m
Waning Crescent, 16% of the Moon is Illuminated
Jul 22
Waning Crescent
Jul 26
New
Aug 3
First Quarter
Aug 10
Full
Aug 17
Last Quarter

Hourly Weather History & Observations

Time (EDT) Temp. Heat Index Dew Point Humidity Pressure Visibility Wind Dir Wind Speed Gust Speed Precip Events Conditions
12:10 AM 69.8 °F - 68.0 °F 94% 30.18 in 10.0 mi Calm Calm - N/A   Clear
12:50 AM 69.8 °F - 68.0 °F 94% 30.17 in 10.0 mi Calm Calm - N/A   Scattered Clouds
1:10 AM 69.8 °F - 68.0 °F 94% 30.17 in 10.0 mi Calm Calm - N/A   Scattered Clouds
1:30 AM 69.8 °F - 68.0 °F 94% 30.17 in 10.0 mi Calm Calm - N/A   Clear
1:50 AM 69.8 °F - 68.0 °F 94% 30.17 in 10.0 mi Calm Calm - N/A   Clear
2:10 AM 69.8 °F - 68.0 °F 94% 30.17 in 10.0 mi Calm Calm - N/A   Mostly Cloudy
2:30 AM 69.8 °F - 69.8 °F 100% 30.17 in 10.0 mi Calm Calm - N/A   Overcast
2:45 AM 69.8 °F - 69.8 °F 100% 30.16 in 10.0 mi Calm Calm - N/A   Overcast
3:10 AM 73.4 °F - 69.8 °F 88% 30.16 in 10.0 mi Calm Calm - N/A   Mostly Cloudy
3:30 AM 73.4 °F - 69.8 °F 88% 30.16 in 10.0 mi Calm Calm - N/A   Scattered Clouds
3:50 AM 73.4 °F - 69.8 °F 88% 30.15 in 10.0 mi South 3.5 mph - N/A   Clear
4:10 AM 73.4 °F - 69.8 °F 88% 30.15 in 10.0 mi Calm Calm - N/A   Clear
4:30 AM 71.6 °F - 69.8 °F 94% 30.16 in 10.0 mi Calm Calm - N/A   Clear
4:50 AM 69.8 °F - 69.8 °F 100% 30.16 in 10.0 mi Calm Calm - N/A   Scattered Clouds
5:10 AM 69.8 °F - 69.8 °F 100% 30.16 in 10.0 mi Calm Calm - N/A   Mostly Cloudy
5:30 AM 69.8 °F - 69.8 °F 100% 30.17 in 10.0 mi Calm Calm - N/A   Overcast
5:50 AM 69.8 °F - 69.8 °F 100% 30.17 in 10.0 mi Calm Calm - N/A   Mostly Cloudy
6:10 AM 69.8 °F - 69.8 °F 100% 30.17 in 10.0 mi Calm Calm - N/A   Overcast
6:30 AM 71.6 °F - 69.8 °F 94% 30.17 in 10.0 mi Calm Calm - N/A   Overcast
6:50 AM 71.6 °F - 71.6 °F 100% 30.18 in 10.0 mi Calm Calm - N/A   Overcast
7:10 AM 71.6 °F - 71.6 °F 100% 30.18 in 10.0 mi Calm Calm - N/A   Overcast
7:30 AM 73.4 °F - 71.6 °F 94% 30.19 in 10.0 mi Calm Calm - N/A   Overcast
7:50 AM 73.4 °F - 71.6 °F 94% 30.19 in 10.0 mi Calm Calm - N/A   Overcast
8:10 AM 75.2 °F - 69.8 °F 83% 30.20 in 10.0 mi Calm Calm - N/A   Overcast
8:30 AM 77.0 °F - 71.6 °F 83% 30.20 in 10.0 mi Calm Calm - N/A   Overcast
8:50 AM 77.0 °F - 71.6 °F 83% 30.20 in 10.0 mi Calm Calm - N/A   Overcast
9:10 AM 77.0 °F - 71.6 °F 83% 30.19 in 10.0 mi SE 3.5 mph - N/A   Overcast
9:30 AM 78.8 °F - 71.6 °F 78% 30.19 in 10.0 mi ESE 3.5 mph - N/A   Overcast
9:50 AM 80.6 °F 84.6 °F 71.6 °F 74% 30.19 in 10.0 mi SE 3.5 mph - N/A   Overcast
10:10 AM 78.8 °F - 71.6 °F 78% 30.19 in 10.0 mi SW 3.5 mph - N/A   Overcast
10:30 AM 78.8 °F - 69.8 °F 74% 30.18 in 10.0 mi Calm Calm - N/A   Overcast
10:50 AM 78.8 °F - 69.8 °F 74% 30.18 in 10.0 mi Calm Calm - N/A   Overcast
11:10 AM 80.6 °F 83.9 °F 69.8 °F 70% 30.17 in 10.0 mi Calm Calm - N/A   Overcast
11:30 AM 80.6 °F 83.9 °F 69.8 °F 70% 30.17 in 10.0 mi Calm Calm - N/A   Overcast
11:50 AM 82.4 °F 86.3 °F 69.8 °F 66% 30.17 in 10.0 mi Calm Calm - N/A   Overcast
12:10 PM 82.4 °F 86.3 °F 69.8 °F 66% 30.16 in 10.0 mi SW 3.5 mph - N/A   Overcast
12:30 PM 82.4 °F 86.3 °F 69.8 °F 66% 30.16 in 10.0 mi SE 4.6 mph - N/A   Overcast
12:50 PM 82.4 °F 86.3 °F 69.8 °F 66% 30.16 in 10.0 mi SE 3.5 mph - N/A   Overcast
1:10 PM 82.4 °F 86.3 °F 69.8 °F 66% 30.15 in 10.0 mi SE 5.8 mph - N/A   Overcast
1:30 PM 82.4 °F 86.3 °F 69.8 °F 66% 30.15 in 10.0 mi SE 4.6 mph - N/A   Overcast
1:50 PM 82.4 °F 85.4 °F 68.0 °F 62% 30.15 in 10.0 mi ESE 4.6 mph - N/A   Overcast
2:10 PM 82.4 °F 87.2 °F 71.6 °F 70% 30.14 in 10.0 mi ESE 6.9 mph - N/A   Overcast
2:30 PM 84.2 °F 89.6 °F 71.6 °F 66% 30.14 in 10.0 mi ESE 3.5 mph - N/A   Overcast
2:50 PM 86.0 °F 90.4 °F 69.8 °F 58% 30.13 in 10.0 mi SE 4.6 mph - N/A   Mostly Cloudy
3:10 PM 86.0 °F 90.4 °F 69.8 °F 58% 30.12 in 10.0 mi Calm Calm - N/A   Mostly Cloudy
3:30 PM 84.2 °F 88.4 °F 69.8 °F 62% 30.12 in 10.0 mi ESE 5.8 mph - N/A   Overcast
3:50 PM 84.2 °F 88.4 °F 69.8 °F 62% 30.12 in 10.0 mi ESE 4.6 mph - N/A   Mostly Cloudy
4:10 PM 86.0 °F 90.4 °F 69.8 °F 58% 30.11 in 10.0 mi ESE 4.6 mph - N/A   Mostly Cloudy
4:30 PM 86.0 °F 90.4 °F 69.8 °F 58% 30.10 in 10.0 mi SE 5.8 mph - N/A   Overcast
4:50 PM 84.2 °F 88.4 °F 69.8 °F 62% 30.10 in 10.0 mi SE 4.6 mph - N/A   Mostly Cloudy
5:10 PM 86.0 °F 90.4 °F 69.8 °F 58% 30.10 in 10.0 mi SE 5.8 mph - N/A   Mostly Cloudy
5:30 PM 86.0 °F 90.4 °F 69.8 °F 58% 30.09 in 10.0 mi SSE 5.8 mph - N/A   Scattered Clouds
5:50 PM 86.0 °F 90.4 °F 69.8 °F 58% 30.09 in 10.0 mi SE 5.8 mph - N/A   Mostly Cloudy
6:10 PM 86.0 °F 90.4 °F 69.8 °F 58% 30.09 in 10.0 mi SSE 5.8 mph - N/A   Mostly Cloudy
6:30 PM 86.0 °F 89.4 °F 68.0 °F 55% 30.08 in 10.0 mi SSE 5.8 mph - N/A   Mostly Cloudy
6:50 PM 86.0 °F 89.4 °F 68.0 °F 55% 30.08 in 10.0 mi South 4.6 mph - N/A   Mostly Cloudy
7:10 PM 86.0 °F 88.2 °F 66.2 °F 51% 30.08 in 10.0 mi South 4.6 mph - N/A   Scattered Clouds
7:30 PM 84.2 °F 87.3 °F 68.0 °F 58% 30.07 in 10.0 mi SSE 4.6 mph - N/A   Clear
7:50 PM 84.2 °F 87.3 °F 68.0 °F 58% 30.08 in 10.0 mi SE 3.5 mph - N/A   Clear
8:10 PM 82.4 °F 85.4 °F 68.0 °F 62% 30.08 in 10.0 mi SE 3.5 mph - N/A   Scattered Clouds
8:30 PM 82.4 °F 85.4 °F 68.0 °F 62% 30.08 in 10.0 mi SE 3.5 mph - N/A   Scattered Clouds
8:50 PM 80.6 °F 83.2 °F 68.0 °F 65% 30.08 in 10.0 mi SE 3.5 mph - N/A   Scattered Clouds
9:10 PM 80.6 °F 83.2 °F 68.0 °F 65% 30.09 in 10.0 mi Calm Calm - N/A   Clear
9:30 PM 80.6 °F 83.2 °F 68.0 °F 65% 30.09 in 10.0 mi Calm Calm - N/A   Clear
10:15 PM 77.0 °F - 68.0 °F 74% 30.09 in 10.0 mi Calm Calm - N/A   Clear
10:35 PM 77.0 °F - 68.0 °F 74% 30.09 in 10.0 mi Calm Calm - N/A   Clear
10:55 PM 73.4 °F - 68.0 °F 83% 30.09 in 10.0 mi Calm Calm - N/A   Clear
11:15 PM 73.4 °F - 68.0 °F 83% 30.08 in 10.0 mi Calm Calm - N/A   Clear
11:35 PM 73.4 °F - 68.0 °F 83% 30.08 in 10.0 mi Calm Calm - N/A   Clear
11:55 PM 73.4 °F - 68.0 °F 83% 30.07 in 10.0 mi Calm Calm - N/A   Clear